Regional Weather Roundup
Issued by NWS

Home | Current Version | Previous Version | Graphics & Text | Print | Product List | Glossary On
Versions: 1 2 3 4 5 6 7 8 9 10 11 12 13 14 15 16 17 18 19 20 21 22 23 24 25 26 27 28 29 30 31 32 33 34 35 36 37 38 39 40 41 42 43 44 45 46 47 48 49 50
000
ASUS43 KOAX 272302
RWRNE

WEATHER ROUNDUP FOR NEBRASKA
NATIONAL WEATHER SERVICE OMAHA NE
600 PM CDT TUE SEP 27 2016

NOTES: SATELLITE DATA IS BEING USED TO AUGMENT CLOUD COVER ABOVE
       12000 FEET.
       "FAIR" INDICATES FEW OR NO CLOUDS BELOW 12,000 FEET WITH NO
       SIGNIFICANT WEATHER AND/OR OBSTRUCTIONS TO VISIBILITY.

  * THESE STATIONS DO NOT REPORT WEATHER SUCH AS RAIN...SNOW OR FOG.

NEZ001>004-019>022-054>056-280000-
NEBRASKA PANHANDLE

CITY           SKY/WX    TMP DP  RH WIND       PRES   REMARKS
SCOTTSBLUFF    SUNNY     84  32  15 SW6       30.03F
ALLIANCE       SUNNY     83  34  17 NW10G17   30.02F
CHADRON        SUNNY     83  33  16 NW15      29.99S
KIMBALL        SUNNY     80  37  21 NE7       30.10F
SIDNEY         SUNNY     83  30  14 VRB5      30.08S
$$

NEZ057>060-069>072-079>082-280000-
SOUTHWEST NEBRASKA

CITY           SKY/WX    TMP DP  RH WIND       PRES   REMARKS
NORTH PLATTE   SUNNY     85  39  19 NW10      29.95S
IMPERIAL       SUNNY     86  27  11 NW9       30.00F
LEXINGTON      SUNNY     84  41  22 NW10      29.92F
MCCOOK         SUNNY     86  41  20 W8        29.96F
OGALLALA       SUNNY     86  33  14 NW5       30.00S
$$

NEZ005>010-023>029-035>040-094-280000-
NORTH CENTRAL NEBRASKA

CITY           SKY/WX    TMP DP  RH WIND       PRES   REMARKS
VALENTINE      SUNNY     81  36  19 NW14      29.94F
AINSWORTH      SUNNY     80  42  26 NW14      29.94S
BROKEN BOW     SUNNY     85  42  22 NW14G21   29.92S
O`NEILL        SUNNY     79  40  24 N12       29.90F
ORD            SUNNY     82  39  21 NW18      29.88F
THEDFORD       SUNNY     83  43  24 N14G23    29.97R
$$

NEZ041-046>049-061>064-073>077-083>087-280000-
SOUTH CENTRAL NEBRASKA

CITY           SKY/WX    TMP DP  RH WIND       PRES   REMARKS
GRAND ISLAND   SUNNY     82  44  26 W10       29.89F
AURORA         SUNNY     81  45  28 W6        29.89F
HASTINGS       SUNNY     83  44  25 W9        29.91F
HOLDREGE       SUNNY     83  41  22 W9        29.93F
KEARNEY *      SUNNY     84  45  24 W10       29.90F
YORK           SUNNY     79  45  29 N6        29.89F
$$

NEZ011>018-030>034-042>045-280000-
NORTHEAST NEBRASKA

CITY           SKY/WX    TMP DP  RH WIND       PRES   REMARKS
NORFOLK        SUNNY     77  44  30 N12G18    29.88F
ALBION         SUNNY     79  44  28 N8        29.88F
BLAIR          SUNNY     76  44  31 NW8       29.87F
FREMONT        SUNNY     76  44  31 NW10      29.87F
TEKAMAH        SUNNY     77  43  29 NW13      29.86S
WAYNE          SUNNY     74  46  36 NW10      29.88F
$$

NEZ050>053-065>068-078-088>093-280000-
SOUTHEAST NEBRASKA

CITY           SKY/WX    TMP DP  RH WIND       PRES   REMARKS
LINCOLN        SUNNY     81  47  30 NW9       29.88F
OMAHA EPPLEY   SUNNY     77  47  34 NW7       29.86F
BEATRICE       SUNNY     80  49  33 NW9       29.88S
FALLS CITY     SUNNY     76  54  46 NW6       29.86F
NEBRASKA CITY  SUNNY     76  30  18 NW8       29.87F
PLATTSMOUTH    SUNNY     76  35  22 NW7       29.87F
$$

NEZ044-045-051>053-067-280000-
OMAHA AREA

CITY           SKY/WX    TMP DP  RH WIND       PRES   REMARKS
OMAHA EPPLEY   SUNNY     77  47  34 NW7       29.86F
BLAIR          SUNNY     76  44  31 NW8       29.87F
FREMONT        SUNNY     76  44  31 NW10      29.87F
MILLARD        SUNNY     77  47  34 NW6       29.86F
OFFUTT AFB     SUNNY     76  46  33 W6        29.85F
PLATTSMOUTH    SUNNY     76  35  22 NW7       29.87F
WAHOO          FAIR      79  42  26 NW7       29.87F
$$




USA.gov is the U.S. government's official web portal to all federal, state and local government web resources and services.